Time,TemperatureF,DewpointF,PressureIn,WindDirection,WindDirectionDegrees,WindSpeedMPH,WindSpeedGustMPH,Humidity,HourlyPrecipIn,Conditions,Clouds,dailyrainin,SoftwareType,DateUTC
2013-02-20 00:02:00,39.0,19.0,-100.00,NW,307,14.0,-999.0,44,-99.99,,,-99.99,,2013-02-20 05:02:00,
2013-02-20 00:12:00,39.0,19.0,-100.00,NW,307,14.0,-999.0,44,-99.99,,,-99.99,,2013-02-20 05:12:00,
2013-02-20 00:22:00,39.0,19.0,-100.00,WNW,302,13.0,-999.0,43,-99.99,,,-99.99,,2013-02-20 05:22:00,
2013-02-20 00:32:00,39.0,19.0,-100.00,NW,307,12.0,-999.0,43,-99.99,,,-99.99,,2013-02-20 05:32:00,
2013-02-20 00:43:00,39.0,19.0,-100.00,NW,307,12.0,-999.0,43,-99.99,,,-99.99,,2013-02-20 05:43:00,
2013-02-20 00:52:00,38.0,18.0,-100.00,NW,306,13.0,-999.0,44,-99.99,,,-99.99,,2013-02-20 05:52:00,
2013-02-20 01:02:00,38.0,18.0,-100.00,NW,308,13.0,-999.0,44,-99.99,,,-99.99,,2013-02-20 06:02:00,
2013-02-20 01:11:00,38.0,18.0,-100.00,NW,308,13.0,-999.0,44,-99.99,,,-99.99,,2013-02-20 06:11:00,
2013-02-20 01:21:00,38.0,18.0,-100.00,NW,309,12.0,-999.0,45,-99.99,,,-99.99,,2013-02-20 06:21:00,
2013-02-20 01:32:00,37.0,19.0,-100.00,NW,305,12.0,-999.0,46,-99.99,,,-99.99,,2013-02-20 06:32:00,
2013-02-20 01:42:00,37.0,19.0,-100.00,NW,305,12.0,-999.0,46,-99.99,,,-99.99,,2013-02-20 06:42:00,
2013-02-20 01:52:00,37.0,19.0,-100.00,WNW,301,11.0,-999.0,46,-99.99,,,-99.99,,2013-02-20 06:52:00,
2013-02-20 02:02:00,37.0,18.0,-100.00,WNW,301,14.0,-999.0,45,-99.99,,,-99.99,,2013-02-20 07:02:00,
2013-02-20 02:11:00,37.0,18.0,-100.00,WNW,301,14.0,-999.0,45,-99.99,,,-99.99,,2013-02-20 07:11:00,
2013-02-20 02:21:00,37.0,18.0,-100.00,WNW,300,13.0,-999.0,45,-99.99,,,-99.99,,2013-02-20 07:21:00,
2013-02-20 02:31:00,37.0,17.0,-100.00,NW,304,13.0,-999.0,44,-99.99,,,-99.99,,2013-02-20 07:31:00,
2013-02-20 02:42:00,37.0,17.0,-100.00,NW,304,13.0,-999.0,44,-99.99,,,-99.99,,2013-02-20 07:42:00,
2013-02-20 02:52:00,36.0,17.0,-100.00,NW,313,13.0,-999.0,45,-99.99,,,-99.99,,2013-02-20 07:52:00,
2013-02-20 03:05:00,36.0,17.0,-100.00,NW,311,10.0,-999.0,46,-99.99,,,-99.99,,2013-02-20 08:05:00,
2013-02-20 03:11:00,36.0,17.0,-100.00,NW,311,10.0,-999.0,46,-99.99,,,-99.99,,2013-02-20 08:11:00,
2013-02-20 03:21:00,36.0,18.0,-100.00,NW,309,9.0,-999.0,47,-99.99,,,-99.99,,2013-02-20 08:21:00,
2013-02-20 03:31:00,35.0,17.0,-100.00,NW,305,10.0,-999.0,47,-99.99,,,-99.99,,2013-02-20 08:31:00,
2013-02-20 03:41:00,35.0,17.0,-100.00,NW,305,10.0,-999.0,47,-99.99,,,-99.99,,2013-02-20 08:41:00,
2013-02-20 03:52:00,35.0,17.0,-100.00,NW,316,8.0,-999.0,47,-99.99,,,-99.99,,2013-02-20 08:52:00,
2013-02-20 04:02:00,35.0,15.0,-100.00,NW,313,12.0,-999.0,44,-99.99,,,-99.99,,2013-02-20 09:02:00,
2013-02-20 04:11:00,35.0,15.0,-100.00,NW,313,12.0,-999.0,44,-99.99,,,-99.99,,2013-02-20 09:11:00,
2013-02-20 04:21:00,34.0,14.0,-100.00,WNW,303,13.0,-999.0,42,-99.99,,,-99.99,,2013-02-20 09:21:00,
2013-02-20 04:31:00,34.0,14.0,-100.00,NW,310,9.0,-999.0,42,-99.99,,,-99.99,,2013-02-20 09:31:00,
2013-02-20 04:42:00,34.0,14.0,-100.00,NW,310,9.0,-999.0,42,-99.99,,,-99.99,,2013-02-20 09:42:00,
2013-02-20 04:52:00,34.0,14.0,-100.00,NW,310,12.0,-999.0,43,-99.99,,,-99.99,,2013-02-20 09:52:00,
2013-02-20 05:01:00,34.0,13.0,-100.00,NW,312,10.0,-999.0,43,-99.99,,,-99.99,,2013-02-20 10:01:00,
2013-02-20 05:12:00,34.0,13.0,-100.00,NW,312,10.0,-999.0,43,-99.99,,,-99.99,,2013-02-20 10:12:00,
2013-02-20 05:22:00,33.0,13.0,-100.00,NW,311,11.0,-999.0,42,-99.99,,,-99.99,,2013-02-20 10:22:00,
2013-02-20 05:32:00,33.0,13.0,-100.00,NW,309,10.0,-999.0,43,-99.99,,,-99.99,,2013-02-20 10:32:00,
2013-02-20 05:42:00,33.0,13.0,-100.00,NW,309,10.0,-999.0,43,-99.99,,,-99.99,,2013-02-20 10:42:00,
2013-02-20 05:52:00,33.0,13.0,-100.00,NW,314,11.0,-999.0,43,-99.99,,,-99.99,,2013-02-20 10:52:00,
2013-02-20 06:02:00,32.0,13.0,-100.00,NNW,331,9.0,-999.0,44,-99.99,,,-99.99,,2013-02-20 11:02:00,
2013-02-20 06:11:00,32.0,13.0,-100.00,NNW,331,9.0,-999.0,44,-99.99,,,-99.99,,2013-02-20 11:11:00,
2013-02-20 06:21:00,32.0,13.0,-100.00,NW,315,9.0,-999.0,44,-99.99,,,-99.99,,2013-02-20 11:21:00,
2013-02-20 06:32:00,32.0,12.0,-100.00,WNW,300,11.0,-999.0,43,-99.99,,,-99.99,,2013-02-20 11:32:00,
2013-02-20 06:42:00,32.0,12.0,-100.00,WNW,300,11.0,-999.0,43,-99.99,,,-99.99,,2013-02-20 11:42:00,
2013-02-20 06:52:00,32.0,12.0,-100.00,NW,304,14.0,-999.0,43,-99.99,,,-99.99,,2013-02-20 11:52:00,
2013-02-20 07:02:00,32.0,11.0,-100.00,NW,306,12.0,-999.0,42,-99.99,,,-99.99,,2013-02-20 12:02:00,
2013-02-20 07:12:00,32.0,11.0,-100.00,NW,306,12.0,-999.0,42,-99.99,,,-99.99,,2013-02-20 12:12:00,
2013-02-20 07:22:00,32.0,11.0,-100.00,WNW,303,13.0,-999.0,41,-99.99,,,-99.99,,2013-02-20 12:22:00,
2013-02-20 07:32:00,31.0,10.0,-100.00,WNW,303,14.0,-999.0,41,-99.99,,,-99.99,,2013-02-20 12:32:00,
2013-02-20 07:42:00,31.0,10.0,-100.00,WNW,303,14.0,-999.0,41,-99.99,,,-99.99,,2013-02-20 12:42:00,
2013-02-20 07:53:00,31.0,10.0,-100.00,NW,306,12.0,-999.0,40,-99.99,,,-99.99,,2013-02-20 12:53:00,
2013-02-20 08:01:00,31.0,9.0,-100.00,NW,310,13.0,-999.0,40,-99.99,,,-99.99,,2013-02-20 13:01:00,
2013-02-20 08:12:00,31.0,9.0,-100.00,NW,310,13.0,-999.0,40,-99.99,,,-99.99,,2013-02-20 13:12:00,
2013-02-20 08:22:00,31.0,10.0,-100.00,NW,310,13.0,-999.0,40,-99.99,,,-99.99,,2013-02-20 13:22:00,
2013-02-20 08:32:00,31.0,10.0,-100.00,WNW,302,13.0,-999.0,40,-99.99,,,-99.99,,2013-02-20 13:32:00,
2013-02-20 08:42:00,31.0,10.0,-100.00,WNW,302,13.0,-999.0,40,-99.99,,,-99.99,,2013-02-20 13:42:00,
2013-02-20 08:52:00,31.0,10.0,-100.00,WNW,302,13.0,-999.0,39,-99.99,,,-99.99,,2013-02-20 13:52:00,
2013-02-20 09:01:00,31.0,9.0,-100.00,NW,306,17.0,-999.0,39,-99.99,,,-99.99,,2013-02-20 14:01:00,
2013-02-20 09:11:00,31.0,9.0,-100.00,NW,306,17.0,-999.0,39,-99.99,,,-99.99,,2013-02-20 14:11:00,
2013-02-20 09:21:00,31.0,9.0,-100.00,NW,313,16.0,-999.0,39,-99.99,,,-99.99,,2013-02-20 14:21:00,
2013-02-20 09:32:00,31.0,9.0,-100.00,NW,313,15.0,-999.0,40,-99.99,,,-99.99,,2013-02-20 14:32:00,
2013-02-20 09:42:00,31.0,9.0,-100.00,NW,313,15.0,-999.0,40,-99.99,,,-99.99,,2013-02-20 14:42:00,
2013-02-20 09:52:00,31.0,9.0,-100.00,NW,307,18.0,-999.0,39,-99.99,,,-99.99,,2013-02-20 14:52:00,
2013-02-20 10:02:00,31.0,9.0,-100.00,NW,311,17.0,-999.0,39,-99.99,,,-99.99,,2013-02-20 15:02:00,
2013-02-20 10:12:00,31.0,9.0,-100.00,NW,311,17.0,-999.0,39,-99.99,,,-99.99,,2013-02-20 15:12:00,
2013-02-20 10:22:00,31.0,9.0,-100.00,NW,306,20.0,-999.0,39,-99.99,,,-99.99,,2013-02-20 15:22:00,
2013-02-20 10:32:00,32.0,10.0,-100.00,WNW,303,19.0,-999.0,39,-99.99,,,-99.99,,2013-02-20 15:32:00,
2013-02-20 10:42:00,32.0,10.0,-100.00,WNW,303,19.0,-999.0,39,-99.99,,,-99.99,,2013-02-20 15:42:00,
2013-02-20 10:52:00,31.0,10.0,-100.00,NW,305,16.0,-999.0,41,-99.99,,,-99.99,,2013-02-20 15:52:00,
2013-02-20 11:01:00,31.0,10.0,-100.00,WNW,296,16.0,-999.0,41,-99.99,,,-99.99,,2013-02-20 16:01:00,
2013-02-20 11:12:00,31.0,10.0,-100.00,WNW,296,16.0,-999.0,41,-99.99,,,-99.99,,2013-02-20 16:12:00,
2013-02-20 11:22:00,31.0,10.0,-100.00,WNW,295,15.0,-999.0,41,-99.99,,,-99.99,,2013-02-20 16:22:00,
2013-02-20 11:32:00,32.0,10.0,-100.00,WNW,292,15.0,-999.0,39,-99.99,,,-99.99,,2013-02-20 16:32:00,
2013-02-20 11:42:00,32.0,10.0,-100.00,WNW,292,15.0,-999.0,39,-99.99,,,-99.99,,2013-02-20 16:42:00,
2013-02-20 11:52:00,32.0,10.0,-100.00,NW,308,14.0,-999.0,39,-99.99,,,-99.99,,2013-02-20 16:52:00,
2013-02-20 12:01:00,32.0,10.0,-100.00,NW,306,13.0,-999.0,40,-99.99,,,-99.99,,2013-02-20 17:01:00,
2013-02-20 12:11:00,32.0,10.0,-100.00,NW,306,13.0,-999.0,40,-99.99,,,-99.99,,2013-02-20 17:11:00,
2013-02-20 12:21:00,32.0,10.0,-100.00,WNW,299,11.0,-999.0,39,-99.99,,,-99.99,,2013-02-20 17:21:00,
2013-02-20 12:32:00,33.0,10.0,-100.00,WNW,298,14.0,-999.0,38,-99.99,,,-99.99,,2013-02-20 17:32:00,
2013-02-20 12:42:00,33.0,10.0,-100.00,WNW,298,14.0,-999.0,38,-99.99,,,-99.99,,2013-02-20 17:42:00,
2013-02-20 12:52:00,33.0,10.0,-100.00,WNW,293,16.0,-999.0,38,-99.99,,,-99.99,,2013-02-20 17:52:00,
2013-02-20 13:02:00,33.0,10.0,-100.00,NW,306,17.0,-999.0,38,-99.99,,,-99.99,,2013-02-20 18:02:00,
2013-02-20 13:11:00,33.0,10.0,-100.00,NW,306,17.0,-999.0,38,-99.99,,,-99.99,,2013-02-20 18:11:00,
2013-02-20 13:22:00,34.0,11.0,-100.00,NW,309,14.0,-999.0,38,-99.99,,,-99.99,,2013-02-20 18:22:00,
2013-02-20 13:32:00,33.0,11.0,-100.00,NW,318,14.0,-999.0,39,-99.99,,,-99.99,,2013-02-20 18:32:00,
2013-02-20 13:42:00,33.0,11.0,-100.00,NW,318,14.0,-999.0,39,-99.99,,,-99.99,,2013-02-20 18:42:00,
2013-02-20 13:52:00,33.0,11.0,-100.00,NW,312,14.0,-999.0,40,-99.99,,,-99.99,,2013-02-20 18:52:00,
2013-02-20 14:01:00,34.0,11.0,-100.00,NW,319,13.0,-999.0,38,-99.99,,,-99.99,,2013-02-20 19:01:00,
2013-02-20 14:11:00,34.0,11.0,-100.00,NW,319,13.0,-999.0,38,-99.99,,,-99.99,,2013-02-20 19:11:00,
2013-02-20 14:21:00,34.0,10.0,-100.00,NW,306,15.0,-999.0,36,-99.99,,,-99.99,,2013-02-20 19:21:00,
2013-02-20 14:31:00,34.0,10.0,-100.00,NW,318,14.0,-999.0,36,-99.99,,,-99.99,,2013-02-20 19:31:00,
2013-02-20 14:41:00,34.0,10.0,-100.00,NW,318,14.0,-999.0,36,-99.99,,,-99.99,,2013-02-20 19:41:00,
2013-02-20 14:52:00,34.0,10.0,-100.00,NW,315,13.0,-999.0,36,-99.99,,,-99.99,,2013-02-20 19:52:00,
2013-02-20 15:01:00,35.0,10.0,-100.00,NW,306,12.0,-999.0,35,-99.99,,,-99.99,,2013-02-20 20:01:00,
2013-02-20 15:11:00,35.0,10.0,-100.00,NW,306,12.0,-999.0,35,-99.99,,,-99.99,,2013-02-20 20:11:00,
2013-02-20 15:21:00,35.0,10.0,-100.00,NW,313,12.0,-999.0,35,-99.99,,,-99.99,,2013-02-20 20:21:00,
2013-02-20 15:31:00,35.0,10.0,-100.00,NW,313,14.0,-999.0,34,-99.99,,,-99.99,,2013-02-20 20:31:00,
2013-02-20 15:41:00,35.0,10.0,-100.00,NW,313,14.0,-999.0,34,-99.99,,,-99.99,,2013-02-20 20:41:00,
2013-02-20 15:52:00,36.0,9.0,-100.00,NW,311,14.0,-999.0,33,-99.99,,,-99.99,,2013-02-20 20:52:00,
2013-02-20 16:01:00,36.0,10.0,-100.00,NW,314,12.0,-999.0,32,-99.99,,,-99.99,,2013-02-20 21:01:00,
2013-02-20 16:11:00,36.0,10.0,-100.00,NW,314,12.0,-999.0,32,-99.99,,,-99.99,,2013-02-20 21:11:00,
2013-02-20 16:21:00,36.0,9.0,-100.00,NW,313,17.0,-999.0,33,-99.99,,,-99.99,,2013-02-20 21:21:00,
2013-02-20 16:31:00,36.0,9.0,-100.00,NW,312,18.0,-999.0,33,-99.99,,,-99.99,,2013-02-20 21:31:00,
2013-02-20 16:42:00,36.0,9.0,-100.00,NW,312,18.0,-999.0,33,-99.99,,,-99.99,,2013-02-20 21:42:00,
2013-02-20 16:52:00,35.0,9.0,-100.00,NW,315,22.0,-999.0,33,-99.99,,,-99.99,,2013-02-20 21:52:00,
2013-02-20 17:02:00,35.0,9.0,-100.00,NW,310,16.0,-999.0,34,-99.99,,,-99.99,,2013-02-20 22:02:00,
2013-02-20 17:11:00,35.0,9.0,-100.00,NW,310,16.0,-999.0,34,-99.99,,,-99.99,,2013-02-20 22:11:00,
2013-02-20 17:21:00,35.0,10.0,-100.00,NW,321,14.0,-999.0,34,-99.99,,,-99.99,,2013-02-20 22:21:00,
2013-02-20 17:31:00,34.0,10.0,-100.00,NW,318,12.0,-999.0,36,-99.99,,,-99.99,,2013-02-20 22:31:00,
2013-02-20 17:43:00,34.0,10.0,-100.00,NW,318,12.0,-999.0,36,-99.99,,,-99.99,,2013-02-20 22:43:00,
2013-02-20 17:52:00,33.0,10.0,-100.00,NW,316,14.0,-999.0,37,-99.99,,,-99.99,,2013-02-20 22:52:00,
2013-02-20 18:01:00,33.0,10.0,-100.00,NW,316,15.0,-999.0,38,-99.99,,,-99.99,,2013-02-20 23:01:00,
2013-02-20 18:12:00,33.0,10.0,-100.00,NW,316,15.0,-999.0,38,-99.99,,,-99.99,,2013-02-20 23:12:00,
2013-02-20 18:22:00,32.0,10.0,-100.00,NW,315,16.0,-999.0,39,-99.99,,,-99.99,,2013-02-20 23:22:00,
2013-02-20 18:32:00,32.0,10.0,-100.00,NW,324,17.0,-999.0,40,-99.99,,,-99.99,,2013-02-20 23:32:00,
2013-02-20 18:42:00,32.0,10.0,-100.00,NW,324,17.0,-999.0,40,-99.99,,,-99.99,,2013-02-20 23:42:00,
2013-02-20 18:53:00,31.0,10.0,-100.00,NW,319,18.0,-999.0,40,-99.99,,,-99.99,,2013-02-20 23:53:00,
2013-02-20 19:03:00,30.0,9.0,-100.00,NW,315,17.0,-999.0,40,-99.99,,,-99.99,,2013-02-21 00:03:00,
2013-02-20 19:11:00,30.0,9.0,-100.00,NW,315,17.0,-999.0,40,-99.99,,,-99.99,,2013-02-21 00:11:00,
2013-02-20 19:22:00,30.0,8.0,-100.00,NW,312,14.0,-999.0,40,-99.99,,,-99.99,,2013-02-21 00:22:00,
2013-02-20 19:32:00,30.0,9.0,-100.00,NNW,332,11.0,-999.0,41,-99.99,,,-99.99,,2013-02-21 00:32:00,
2013-02-20 19:42:00,30.0,9.0,-100.00,NNW,332,11.0,-999.0,41,-99.99,,,-99.99,,2013-02-21 00:42:00,
2013-02-20 19:52:00,29.0,8.0,-100.00,NW,325,13.0,-999.0,41,-99.99,,,-99.99,,2013-02-21 00:52:00,
2013-02-20 20:01:00,28.0,8.0,-100.00,NW,313,13.0,-999.0,41,-99.99,,,-99.99,,2013-02-21 01:01:00,
2013-02-20 20:11:00,28.0,8.0,-100.00,NW,313,13.0,-999.0,41,-99.99,,,-99.99,,2013-02-21 01:11:00,
2013-02-20 20:21:00,28.0,7.0,-100.00,NW,317,12.0,-999.0,41,-99.99,,,-99.99,,2013-02-21 01:21:00,
2013-02-20 20:32:00,28.0,8.0,-100.00,NW,315,10.0,-999.0,42,-99.99,,,-99.99,,2013-02-21 01:32:00,
2013-02-20 20:42:00,28.0,8.0,-100.00,NW,315,10.0,-999.0,42,-99.99,,,-99.99,,2013-02-21 01:42:00,
2013-02-20 20:52:00,28.0,7.0,-100.00,NW,312,10.0,-999.0,42,-99.99,,,-99.99,,2013-02-21 01:52:00,
2013-02-20 21:02:00,27.0,7.0,-100.00,NW,310,10.0,-999.0,41,-99.99,,,-99.99,,2013-02-21 02:02:00,
2013-02-20 21:11:00,27.0,7.0,-100.00,NW,310,10.0,-999.0,41,-99.99,,,-99.99,,2013-02-21 02:11:00,
2013-02-20 21:22:00,27.0,6.0,-100.00,NW,312,14.0,-999.0,41,-99.99,,,-99.99,,2013-02-21 02:22:00,
2013-02-20 21:32:00,27.0,6.0,-100.00,NW,307,10.0,-999.0,41,-99.99,,,-99.99,,2013-02-21 02:32:00,
2013-02-20 21:42:00,27.0,6.0,-100.00,NW,307,10.0,-999.0,41,-99.99,,,-99.99,,2013-02-21 02:42:00,
2013-02-20 21:52:00,27.0,6.0,-100.00,NW,307,10.0,-999.0,41,-99.99,,,-99.99,,2013-02-21 02:52:00,
2013-02-20 22:02:00,26.0,7.0,-100.00,NW,305,11.0,-999.0,42,-99.99,,,-99.99,,2013-02-21 03:02:00,
2013-02-20 22:12:00,26.0,7.0,-100.00,NW,305,11.0,-999.0,42,-99.99,,,-99.99,,2013-02-21 03:12:00,
2013-02-20 22:21:00,26.0,7.0,-100.00,NW,310,9.0,-999.0,43,-99.99,,,-99.99,,2013-02-21 03:21:00,
2013-02-20 22:32:00,26.0,6.0,-100.00,WNW,302,12.0,-999.0,42,-99.99,,,-99.99,,2013-02-21 03:32:00,
2013-02-20 22:42:00,26.0,6.0,-100.00,WNW,302,12.0,-999.0,42,-99.99,,,-99.99,,2013-02-21 03:42:00,
2013-02-20 22:52:00,26.0,6.0,-100.00,WNW,303,14.0,-999.0,42,-99.99,,,-99.99,,2013-02-21 03:52:00,
2013-02-20 23:01:00,26.0,6.0,-100.00,NW,305,18.0,-999.0,42,-99.99,,,-99.99,,2013-02-21 04:01:00,
2013-02-20 23:11:00,26.0,6.0,-100.00,NW,305,18.0,-999.0,42,-99.99,,,-99.99,,2013-02-21 04:11:00,
2013-02-20 23:22:00,26.0,6.0,-100.00,NW,304,13.0,-999.0,42,-99.99,,,-99.99,,2013-02-21 04:22:00,
2013-02-20 23:32:00,25.0,6.0,-100.00,WNW,302,12.0,-999.0,43,-99.99,,,-99.99,,2013-02-21 04:32:00,
2013-02-20 23:42:00,25.0,6.0,-100.00,WNW,302,12.0,-999.0,43,-99.99,,,-99.99,,2013-02-21 04:42:00,
2013-02-20 23:52:00,25.0,6.0,-100.00,NW,306,8.0,-999.0,44,-99.99,,,-99.99,,2013-02-21 04:52:00,